St. Joseph, KS

7:03 AM CDT on September 25, 2017 (GMT -0500)
Rosecrans Memorial

Weather History for KSTJ - July, 2012

Change the Weather History Date:

Thursday, July 5, 2012

  Actual Average Record
Temperature  
Mean Temperature 86 °F 77 °F  
Max Temperature 99 °F 87 °F 106 °F (1911)
Min Temperature 72 °F 67 °F 41 °F (1972)
Degree Days  
Heating Degree Days 0 0  
Month to date heating degree days 0 0  
Since 1 June heating degree days 8 8  
Since 1 July heating degree days 0 0  
Cooling Degree Days 21 12  
Month to date cooling degree days 98 58  
Year to date cooling degree days 716 438  
Since 1 June cooling degree days 449 325  
Growing Degree Days 36 (Base 50)    
Moisture  
Dew Point 67 °F    
Average Humidity 54    
Maximum Humidity 76    
Minimum Humidity 31    
Precipitation  
Precipitation 0.00 in 0.13 in 3.41 in (1961)
Month to date precipitation 0.01 0.73  
Year to date precipitation 14.86 17.86  
Sea Level Pressure  
Sea Level Pressure 29.91 in    
Wind  
Wind Speed 5 mph (South)    
Max Wind Speed 13 mph    
Max Gust Speed 17 mph    
Visibility 10 miles    
Events      
T = Trace of Precipitation, MM = Missing Value Source: NWS Daily Summary

Daily Weather History Graph

Daily Weather History Graph

Search for Another Location

Airport or City:

Trip Planner

Search our weather history database for the weather conditions in past years. The results will help you decide how hot, cold, wet, or windy it might be!

Date:

Astronomy

Jul. 05, 2012 Rise Set
Actual Time 5:57 AM CDT 8:50 PM CDT
Civil Twilight 5:25 AM CDT 9:23 PM CDT
Nautical Twilight 4:44 AM CDT 10:03 PM CDT
Astronomical Twilight 3:57 AM CDT 10:50 PM CDT
Moon 10:08 PM CDT (7/5) 8:10 AM CDT (7/5)
Length of Visible Light 15h 57m
Length of Day
14h 53m
Waning Gibbous, 95% of the Moon is Illuminated
Jul 5
Waning Gibbous
Jul 10
Last Quarter
Jul 18
New
Jul 26
First Quarter
Aug 1
Full

Hourly Weather History & Observations

Time (CDT) Temp. Heat Index Dew Point Humidity Pressure Visibility Wind Dir Wind Speed Gust Speed Precip Events Conditions
12:53 AM 82.0 °F 83.4 °F 64.0 °F 54% 29.86 in 10.0 mi SSW 6.9 mph - N/A   Clear
1:53 AM 81.0 °F 82.5 °F 64.0 °F 56% 29.87 in 10.0 mi SSW 4.6 mph - N/A   Clear
2:53 AM 78.1 °F - 64.0 °F 62% 29.88 in 10.0 mi South 3.5 mph - N/A   Clear
3:53 AM 75.0 °F - 64.0 °F 69% 29.89 in 10.0 mi South 4.6 mph - N/A   Clear
4:53 AM 73.9 °F - 64.0 °F 71% 29.90 in 10.0 mi South 4.6 mph - N/A   Clear
5:53 AM 75.0 °F - 63.0 °F 66% 29.91 in 10.0 mi South 3.5 mph - N/A   Clear
6:53 AM 75.9 °F - 66.0 °F 71% 29.94 in 10.0 mi Calm Calm - N/A   Clear
7:53 AM 80.1 °F 81.9 °F 64.9 °F 60% 29.95 in 10.0 mi South 4.6 mph - N/A   Clear
8:53 AM 82.9 °F 85.4 °F 66.9 °F 58% 29.96 in 10.0 mi South 5.8 mph - N/A   Clear
9:53 AM 87.1 °F 91.3 °F 69.1 °F 55% 29.95 in 10.0 mi SSW 9.2 mph - N/A   Clear
10:53 AM 90.0 °F 95.4 °F 70.0 °F 52% 29.95 in 10.0 mi SSW 5.8 mph - N/A   Clear
11:53 AM 91.9 °F 97.4 °F 70.0 °F 48% 29.95 in 10.0 mi South 6.9 mph - N/A   Clear
12:53 PM 93.9 °F 98.6 °F 68.0 °F 43% 29.93 in 10.0 mi SSW 9.2 mph - N/A   Clear
1:53 PM 96.8 °F 101.8 °F 68.0 °F 39% 29.95 in 10.0 mi South 8.1 mph - N/A   Clear
2:53 PM 97.0 °F 102.2 °F 68.0 °F 39% 29.91 in 10.0 mi SSE 8.1 mph - N/A   Clear
3:53 PM 98.1 °F 101.2 °F 64.9 °F 34% 29.91 in 10.0 mi South 8.1 mph - N/A   Clear
4:53 PM 98.1 °F 99.1 °F 62.1 °F 30% 29.89 in 10.0 mi South 9.2 mph - N/A   Clear
5:53 PM 98.1 °F 99.1 °F 62.1 °F 30% 29.88 in 10.0 mi South 8.1 mph - N/A   Clear
6:53 PM 95.0 °F 99.0 °F 66.9 °F 40% 29.88 in 10.0 mi SSE 4.6 mph - N/A   Clear
7:53 PM 91.9 °F 96.9 °F 69.1 °F 47% 29.88 in 10.0 mi SE 4.6 mph - N/A   Clear
8:53 PM 87.1 °F 89.2 °F 66.0 °F 49% 29.88 in 10.0 mi SE 4.6 mph - N/A   Clear
9:53 PM 80.1 °F 83.6 °F 71.1 °F 74% 29.91 in 10.0 mi Calm Calm - N/A   Clear
10:53 PM 77.0 °F - 70.0 °F 79% 29.92 in 10.0 mi Calm Calm - N/A   Clear
11:53 PM 77.0 °F - 70.0 °F 79% 29.93 in 10.0 mi Calm Calm - N/A   Clear